Location: Home
(42.5358°N, 72.7383°W)
Time: 06:04:29
(UTC-05:00)

S-56A Canister/Altair - Pass Details

Date: 08 December 2021
Orbit: 633 x 2499 km, 38.9° (Epoch: 19 January)

Event Time Altitude Azimuth Distance (km) Brightness Sun altitude
Rises 19:09:57 0° 192° (SSW) 6,130 12.3 -30.9°
Reaches altitude 10° 19:15:53 10° 177° (S) 4,985 11.6 -32.0°
Enters shadow 19:22:23 18° 150° (SSE) 4,074 10.9 -33.2°
